Regional Weather Roundup
Issued by NWS

Home | Current Version | Previous Version | Text Only | Print | Product List | Glossary Off
Versions: 1 2 3 4 5 6 7 8 9 10 11 12 13 14 15 16 17 18 19 20 21 22 23 24 25 26 27 28 29 30 31 32 33 34 35 36 37 38 39 40 41 42 43 44 45 46 47 48 49 50

000
ASUS43 KOAX 251102
RWRNE

WEATHER ROUNDUP FOR NEBRASKA
NATIONAL WEATHER SERVICE OMAHA NE
600 AM CDT MON JUL 25 2016

NOTES: SATELLITE DATA IS BEING USED TO AUGMENT CLOUD COVER ABOVE
       12000 FEET.
       "FAIR" INDICATES FEW OR NO CLOUDS BELOW 12,000 FEET WITH NO
       SIGNIFICANT WEATHER AND/OR OBSTRUCTIONS TO VISIBILITY.

  * THESE STATIONS DO NOT REPORT WEATHER SUCH AS RAIN...SNOW OR FOG.

NEZ001>004-019>022-054>056-251200-
NEBRASKA PANHANDLE

CITY           SKY/WX    TMP DP  RH WIND       PRES   REMARKS
SCOTTSBLUFF    CLEAR     58  55  90 SE9       30.16F
ALLIANCE       CLEAR     53  52  96 SE8       30.18S FOG
CHADRON        CLEAR     62  55  77 S8        30.12S
SIDNEY         CLEAR     54  51  90 S6        30.22R
$$

NEZ057>060-069>072-079>082-251200-
SOUTHWEST NEBRASKA

CITY           SKY/WX    TMP DP  RH WIND       PRES   REMARKS
NORTH PLATTE   CLEAR     60  58  92 E3        30.16R
IMPERIAL       CLEAR     60  57  89 NE5       30.17S
LEXINGTON      CLOUDY    63  61  94 N3        30.15R
MCCOOK         CLOUDY    63  61  93 NE6       30.14R
OGALLALA       CLEAR     60  57  91 CALM      30.17S
$$

NEZ005>010-023>029-035>040-094-251200-
NORTH CENTRAL NEBRASKA

CITY           SKY/WX    TMP DP  RH WIND       PRES   REMARKS
VALENTINE      CLEAR     58  55  90 SW9       30.13S
AINSWORTH      CLEAR     57  51  80 S7        30.15S
BROKEN BOW     CLOUDY    62  61  96 CALM      30.16R
O`NEILL        CLEAR     60  58  94 CALM      30.14R
ORD            CLOUDY    61  58  90 CALM      30.13R
THEDFORD       CLEAR     56  55  97 CALM      30.18R
$$

NEZ041-046>049-061>064-073>077-083>087-251200-
SOUTH CENTRAL NEBRASKA

CITY           SKY/WX    TMP DP  RH WIND       PRES   REMARKS
GRAND ISLAND   MOCLDY    63  60  90 N3        30.12S
AURORA         PTCLDY    64  63  97 E3        30.11S
HASTINGS       MOCLDY    66  62  87 NE6       30.12S
HEBRON         MOCLDY    67  64  91 E7        30.08F
HOLDREGE       CLOUDY    64  62  91 CALM      30.13S
KEARNEY *      CLOUDY    64  61  88 N3        30.13S
$$

NEZ011>018-030>034-042>045-251200-
NORTHEAST NEBRASKA

CITY           SKY/WX    TMP DP  RH WIND       PRES   REMARKS
NORFOLK        CLOUDY    58  56  93 CALM      30.12R
ALBION         PTCLDY    59  56  90 N3        30.13R
BLAIR          PTCLDY    66  63  91 NE7       30.10R
FREMONT        PTCLDY    64  62  94 CALM      30.11R
TEKAMAH        PTCLDY    60  59  96 SE3       30.10R
WAYNE          CLEAR     56  55  97 CALM      30.13R
$$

NEZ050>053-065>068-078-088>093-251200-
SOUTHEAST NEBRASKA

CITY           SKY/WX    TMP DP  RH WIND       PRES   REMARKS
LINCOLN        CLOUDY    65  63  93 N8        30.09S
OMAHA EPPLEY   PTCLDY    65  62  90 NW7       30.09R
BEATRICE       CLOUDY    66  64  94 NE6       30.08R
FALLS CITY     CLOUDY    68  66  93 N6        30.06S
NEBRASKA CITY  MOCLDY    65  65 100 E5        30.10R
PLATTSMOUTH    PTCLDY    66  64  93 N3        30.09S
$$

NEZ044-045-051>053-067-251200-
OMAHA AREA

CITY           SKY/WX    TMP DP  RH WIND       PRES   REMARKS
OMAHA EPPLEY   PTCLDY    65  62  90 NW7       30.09R
BLAIR          PTCLDY    66  63  91 NE7       30.10R
FREMONT        PTCLDY    64  62  94 CALM      30.11R
MILLARD        CLOUDY    67  64  90 CALM      30.10R
OFFUTT AFB     CLOUDY    64  63  99 W1        30.09R
PLATTSMOUTH    PTCLDY    66  64  93 N3        30.09S
WAHOO          FAIR      65  63  91 NE3       30.10R
$$




USA.gov is the U.S. government's official web portal to all federal, state and local government web resources and services.